Location: Mabank
(32.3664°N, 96.1006°W)
Time: 09:09:28
(UTC-06:00)

N. Korean satellite - Visible Passes

Search period start: 22 February 2018 00:00
Search period end: 04 March 2018 00:00
Orbit: 459 x 514 km, 97.2° (Epoch: 21 February)

Date Brightness Start Highest point End Pass type
(mag) Time Alt. Az. Time Alt. Az. Time Alt. Az.
22 Feb 8.9 18:56:18 10° SSW 18:59:17 28° W 19:02:20 10° NW visible
23 Feb 9.1 06:27:31 10° NE 06:30:46 28° E 06:34:02 10° SSE visible
24 Feb 10.3 06:04:55 10° ENE 06:06:56 14° E 06:08:57 10° SE visible
25 Feb 10.1 19:19:46 10° SW 19:21:37 14° W 19:23:28 10° WNW visible
26 Feb 8.8 18:54:42 10° SSW 18:57:45 29° W 19:00:51 10° NW visible
27 Feb 9.2 06:26:02 10° NE 06:29:16 28° E 06:32:31 10° SSE visible
28 Feb 10.3 06:03:28 10° ENE 06:05:24 14° E 06:07:21 10° SE visible
01 Mar 10.0 19:18:02 10° SW 19:20:02 15° W 19:22:03 10° WNW visible
02 Mar 8.8 18:53:03 10° SSW 18:56:09 31° W 18:59:19 10° NNW visible
